www.pogodaiklimat.ru
ПОГОДА в Пазине

Архив погоды в Пазине (Хорватия)

Время
(UTC), дата
19 29.06
20 29.06
21 29.06
00 30.06
03 30.06
04 30.06
05 30.06
06 30.06
07 30.06
08 30.06
09 30.06
10 30.06
11 30.06
12 30.06
13 30.06
14 30.06
15 30.06
16 30.06
17 30.06
18 30.06
19 30.06
20 30.06
21 30.06
00 1.07
03 1.07
04 1.07
05 1.07
06 1.07
07 1.07
08 1.07
09 1.07
10 1.07
11 1.07
12 1.07
13 1.07
14 1.07
15 1.07
16 1.07
17 1.07
18 1.07
19 1.07
20 1.07
21 1.07
00 2.07
03 2.07
04 2.07
05 2.07
06 2.07
07 2.07
08 2.07
09 2.07
10 2.07
11 2.07
12 2.07
13 2.07
14 2.07
15 2.07
16 2.07
17 2.07
18 2.07
19 2.07
20 2.07
21 2.07
00 3.07
03 3.07
04 3.07
05 3.07
06 3.07
07 3.07
08 3.07
09 3.07
10 3.07
11 3.07
12 3.07
13 3.07
14 3.07
15 3.07
16 3.07
17 3.07
18 3.07
19 3.07
20 3.07
21 3.07
00 4.07
03 4.07
04 4.07
05 4.07
06 4.07
07 4.07
08 4.07
09 4.07
10 4.07
11 4.07
12 4.07
13 4.07
14 4.07
15 4.07
16 4.07
17 4.07
18 4.07
19 4.07
20 4.07
21 4.07
00 5.07
03 5.07
04 5.07
05 5.07
06 5.07
07 5.07
08 5.07
09 5.07
10 5.07
11 5.07
12 5.07
13 5.07
14 5.07
15 5.07
16 5.07
17 5.07
18 5.07
19 5.07
20 5.07
21 5.07
00 6.07
03 6.07
04 6.07
05 6.07
06 6.07
07 6.07
08 6.07
09 6.07
10 6.07
11 6.07
12 6.07
13 6.07
14 6.07
15 6.07
16 6.07
17 6.07
18 6.07
Ветер
(напр.,м/с)
Видим. Явления Облачность Т
(С)
Тd
(С)
f
(%)
Тe
(С)
Тes
(С)
Комфортность P
(гПа)
Po
(гПа)
Тmin
(С)
Tmax
(С)
R
(мм)
R24
(мм)
S
(см)
З 1 40 км 3/3 1500 м
[Cu med, cong]
+24.9 +17.4 63 +29 +29 душно 1010.3 977.3
ЮВ 1 20 км 1/1 1000 м
[Sc diur, vesp]
+22.6 +16.6 69 +27 +27 душно 1010.9 977.6
штиль 0 н/о н/о +20.9 +16.6 76 +24 +24 комфорт 1011.7 977.9
Ю 1 н/о н/о +18.5 +16.2 86 +20 +20 1012.2 978.1
штиль 0 н/о н/о +18.0 +15.9 88 +18 +18 1012.7 978.6
штиль 0 н/о н/о +17.9 +16.0 89 +18 +18 1012.9 978.7
штиль 0 н/о н/о +19.2 +16.5 84 +21 +21 комфорт 1012.8 978.8
З 1 20 км 4/4 1500 м
[Cu med, cong]
+22.2 +18.5 80 +27 +30 душно 1011.8 978.5 +17.8
ЮВ 2 20 км 3/3 1500 м
[Cu med, cong Ci fib]
+26.2 +17.6 59 +30 +36 душно 1011.4 978.5
В 2 20 км 8/8 1000 м
[Sc diur, vesp]
+27.2 +18.2 58 +32 +34 очень
душно
1011.3 978.5
СВ 2 20 км 8/8 1500 м
[Cu med, cong]
+27.0 +18.3 59 +32 +35 очень
душно
1011.6 978.8
В 1 20 км 8/8 1000 м
[Cu Sc]
+28.1 +17.6 53 +32 +37 душно 1011.5 978.8
ЮВ 2 20 км 8/8 1000 м
[Cu Sc]
+30.4 +18.5 49 +35 +39 очень
душно
1011.2 978.8
ЮВ 2 20 км 8/8 1000 м
[Cu Sc]
+29.0 +16.9 48 +33 +36 очень
душно
1011.4 978.8
ЮВ 2 30 км 8/8 1000 м
[Sc diur, vesp]
+29.2 +17.0 48 +33 +36 очень
душно
1011.2 978.6
В 2 н/о н/о +29.1 +16.4 46 +32 +32 душно 1011.7 978.8
ЮЗ 3 н/о н/о +30.7 +16.8 43 +34 +34 очень
душно
1011.4 978.7
В 2 н/о н/о +30.7 +14.4 37 +33 +33 душно 1010.9 978.2
ЮВ 2 н/о н/о +29.9 +14.5 39 +32 +32 жарко 1010.8 978.0
ЮВ 3 40 км ясно +27.7 +14.6 45 +30 +30 жарко 1010.9 978.1 +30.8
ЮВ 1 40 км 1/0
[Ci fib]
+25.7 +15.0 52 +29 +29 душно 1011.5 978.5
Ю 1 20 км 1/0
[Ci fib]
+22.6 +15.3 63 +26 +26 жарко 1012.6 979.2
СЗ 1 н/о н/о +20.3 +15.6 74 +24 +24 комфорт 1013.7 979.8
штиль 0 н/о н/о +16.8 +14.7 87 +17 +17 1014.1 979.8
штиль 0 н/о н/о +15.2 +14.0 93 +15 +15 1014.4 979.9
штиль 0 н/о н/о +15.0 +13.6 91 +15 +15 1014.6 980.0
штиль 0 н/о н/о +16.4 +14.3 87 +16 +16 1014.6 980.2
З 1 30 км ясно +20.6 +16.6 78 +25 +30 комфорт 1013.8 980.2 +15.1
В 1 30 км 1/0
[Ci fib]
+26.0 +16.3 55 +29 +38 душно 1013.0 980.0
В 3 30 км 3/0
[Ci fib]
+28.6 +16.6 48 +32 +41 душно 1012.4 979.7
В 3 30 км 4/0
[Ci fib]
+29.5 +16.8 46 +33 +45 душно 1012.3 979.7
ЮВ 3 30 км 3/0
[Ci fib]
+30.3 +17.5 46 +34 +48 очень
душно
1011.9 979.4
ЮВ 3 30 км 3/3 1500 м
[Cu hum Ci fib]
+31.1 +17.9 45 +35 +46 очень
душно
1012.1 979.7
Ю 3 40 км 5/3 1500 м
[Cu med, cong Ci fib]
+31.8 +17.4 42 +36 +46 очень
душно
1011.9 979.6
Ю 3 40 км 8/3 1500 м
[Cu med, cong Cs]
+31.5 +17.0 42 +35 +43 очень
душно
1012.0 979.6
ЮВ 3 н/о н/о +31.0 +15.1 38 +33 +33 душно 1012.4 979.7
ЮВ 3 н/о н/о +30.8 +14.5 37 +33 +33 душно 1012.0 979.3
Ю 2 н/о н/о +30.4 +15.0 39 +33 +33 душно 1012.3 979.5
ЮВ 2 н/о н/о +30.5 +16.2 42 +34 +34 очень
душно
1012.0 979.3
ЮВ 1 40 км 8/3 1000 м
[Cu Sc Ac cast Ci fib]
+28.6 +17.3 50 +33 +33 очень
душно
1012.6 979.9 +32.0
В 1 30 км 4/3 1000 м
[Sc diur, vesp Ac cuf Ci fib]
+27.2 +17.4 55 +31 +31 душно 1012.8 980.0
С 1 30 км 3/1 1000 м
[Sc diur, vesp Ac cast]
+24.2 +18.1 69 +29 +29 душно 1013.9 980.7
ЮВ 1 н/о н/о +22.4 +17.0 72 +27 +27 душно 1015.1 981.4
штиль 0 н/о н/о +18.5 +15.6 83 +19 +19 1016.3 982.1
штиль 0 н/о н/о +16.6 +15.0 90 +16 +16 1016.8 982.4
штиль 0 н/о н/о +16.7 +14.9 89 +17 +17 1017.1 982.7
штиль 0 н/о н/о +17.8 +15.5 86 +18 +18 1017.6 983.3
СЗ 1 30 км ясно +21.5 +17.5 78 +26 +31 душно 1016.9 983.3 +16.7
СВ 1 30 км ясно +26.8 +17.7 57 +31 +40 душно 1016.8 983.8
С 2 30 км ясно +28.9 +15.7 45 +32 +44 душно 1017.0 984.2
В 2 30 км 1/1 1500 м
[Cu hum]
+29.8 +15.2 41 +32 +46 душно 1016.9 984.2
СВ 2 30 км 3/3 1500 м
[Cu med, cong]
+31.4 +14.6 36 +33 +46 жарко 1016.8 984.2
Ю 2 40 км 4/4 1000 м
[Sc diur, vesp]
+30.8 +16.6 42 +34 +45 очень
душно
1016.8 984.2
ЮЗ 2 40 км 4/4 1000 м
[Sc diur, vesp]
+32.2 +17.7 42 +36 +47 очень
душно
1016.3 983.9
ЮЗ 2 40 км 4/4 1500 м
[Cu med, cong]
+33.3 +17.1 38 +37 +46 очень
душно
1016.1 983.8
ЮЗ 2 н/о н/о +32.3 +16.2 38 +35 +35 очень
душно
1016.6 983.9
ЮЗ 3 н/о н/о +32.9 +18.4 42 +37 +37 очень
душно
1016.4 983.8
З 2 н/о н/о +32.6 +17.3 40 +36 +36 очень
душно
1016.1 983.5
З 2 н/о н/о +31.9 +17.5 42 +36 +36 очень
душно
1015.9 983.2
З 2 40 км 3/3 1500 м
[Cu med, cong Ci fib]
+30.0 +18.1 49 +35 +35 очень
душно
1015.9 983.3 +34.1
ЮЗ 1 40 км 3/3 1500 м
[Cu med, cong]
+27.4 +18.4 58 +32 +32 очень
душно
1016.2 983.3
Ю 1 30 км 1/0
[Ci fib]
+24.6 +18.4 68 +29 +29 душно 1016.5 983.3
штиль 0 н/о н/о +22.3 +18.1 77 +27 +27 душно 1017.7 983.9
штиль 0 н/о н/о +18.9 +16.2 84 +20 +20 1017.9 983.7
штиль 0 н/о н/о +16.2 +14.8 91 +16 +16 1018.0 983.5
штиль 0 н/о н/о +15.9 +14.0 88 +16 +16 1018.2 983.6
штиль 0 н/о н/о +16.3 +14.6 90 +16 +16 1018.1 983.6
штиль 0 40 км ясно +20.8 +16.6 77 +24 +30 комфорт 1017.2 983.5 +16.0
СЗ 1 40 км ясно +26.2 +16.2 54 +30 +39 душно 1016.6 983.5
С 1 40 км ясно +28.9 +15.7 45 +32 +46 душно 1016.1 983.3
З 1 50 км 1/1 1500 м
[Cu hum]
+31.1 +14.4 36 +33 +49 душно 1015.8 983.2
С 2 50 км 3/3 1500 м
[Cu med, cong]
+32.3 +13.8 33 +34 +46 душно 1015.3 982.9
СЗ 2 50 км 3/3 1500 м
[Cu med, cong]
+34.0 +14.4 31 +35 +49 очень
жарко
1014.8 982.6
СЗ 3 50 км 4/4 1500 м
[Cu med, cong]
+32.8 +15.1 34 +35 +44 душно 1014.5 982.2
В 2 50 км 5/5 1500 м
[Cu med, cong]
+32.0 +15.4 37 +34 +42 душно 1014.4 982.0
ЮВ 2 н/о н/о +31.9 +17.1 41 +35 +35 очень
душно
1014.9 982.2
В 2 н/о н/о +32.3 +16.7 39 +35 +35 очень
душно
1014.7 982.1
З 1 н/о н/о +32.6 +16.1 37 +35 +35 душно 1014.5 981.9
ЮЗ 3 н/о н/о +32.1 +15.2 36 +34 +34 душно 1014.7 982.0
З 2 50 км 1/0
[Ci fib]
+30.4 +16.0 42 +33 +34 душно 1014.6 982.0 +34.5
ЮВ 1 40 км 3/0
[Ci fib]
+26.4 +16.6 55 +30 +30 душно 1015.2 982.2
штиль 0 40 км 1/0
[Ci fib]
+23.7 +16.4 64 +27 +27 жарко 1016.1 982.8
СЗ 1 н/о н/о +21.9 +16.5 71 +26 +26 душно 1016.7 982.9
штиль 0 н/о н/о +17.6 +14.7 83 +18 +18 1017.0 982.7
штиль 0 н/о н/о +15.8 +13.2 85 +16 +16 1016.7 982.2
штиль 0 н/о н/о +15.5 +13.2 86 +15 +15 1016.9 982.3
штиль 0 н/о н/о +16.3 +13.5 83 +16 +16 1017.0 982.5
штиль 0 40 км 3/0
[Ac trans Ci fib]
+20.4 +15.7 74 +23 +28 комфорт 1015.6 981.9 +15.7
С 1 40 км 3/0
[Ac trans Ci fib]
+26.6 +15.0 49 +29 +37 жарко 1014.6 981.6
В 2 40 км 1/1 1500 м
[Cu med, cong]
+31.2 +12.7 32 +32 +42 жарко 1013.8 981.3
Ю 1 40 км ясно +33.2 +12.6 29 +34 +52 опасность
солнечного
удара
1013.4 981.1
З 2 50 км 3/0
[Ac cast Ci fib]
+33.8 +12.2 27 +34 +50 очень
жарко
1013.3 981.1
ЮЗ 3 50 км 3/1 1500 м
[Cu med, cong Ci fib]
+35.5 +13.0 26 +36 +49 очень
жарко
1013.3 981.2
З 3 50 км 3/3 1500 м
[Cu med, cong Ci fib]
+35.2 +14.1 28 +36 +47 очень
жарко
1012.9 980.8
З 3 50 км 4/1 1500 м
[Cu med, cong Ac cast Ci fib]
+35.7 +15.4 30 +37 +47 душно 1012.7 980.7
З 3 н/о н/о +35.5 +13.1 26 +36 +36 очень
жарко
1012.7 980.5
З 2 н/о н/о +35.5 +12.5 25 +35 +35 очень
жарко
1011.8 979.6
З 2 н/о н/о +35.6 +12.6 25 +36 +36 очень
жарко
1011.1 978.9
З 2 н/о н/о +33.9 +11.2 25 +33 +33 жарко 1011.4 979.0
З 2 40 км 5/0
[Ac trans Ci fib]
+31.6 +12.0 30 +32 +32 жарко 1012.0 979.6 +36.3
ЮВ 1 40 км 5/0
[Ac und Ci fib]
+29.2 +12.2 35 +30 +30 жарко 1012.3 979.6
С 1 40 км 6/0
[Ac As]
+26.0 +13.5 46 +28 +28 жарко 1013.5 980.5
З 4 н/о н/о +25.8 +12.7 44 +28 +28 жарко 1015.6 982.2
Ю 1 н/о н/о +21.8 +17.9 79 +26 +26 душно 1014.4 980.6
штиль 0 н/о н/о +18.4 +15.9 85 +19 +19 1014.1 980.0
штиль 0 н/о н/о +17.4 +15.5 89 +17 +17 1014.6 980.3
штиль 0 н/о н/о +19.1 +16.0 82 +20 +20 1014.6 980.5
З 1 40 км 3/1 1500 м
[Cu hum Ci fib]
+21.8 +17.7 78 +26 +30 душно 1013.7 980.2 +17.4 0.2 0.2
В 1 40 км 3/1 1500 м
[Cu med, cong Ac trans Ci fib]
+27.0 +15.4 49 +30 +37 душно 1013.1 980.2
С 1 40 км 4/1 1500 м
[Cu med, cong Ac trans Ci fib]
+29.0 +13.7 39 +31 +41 жарко 1012.9 980.2
СВ 1 40 км 6/3 1000 м
[Cu Sc Ac cast Ci fib]
+30.5 +13.8 36 +32 +42 жарко 1012.9 980.4
СЗ 1 40 км 8/5 1000 м
[Cu Sc Ac cast Ci fib]
+31.0 +14.5 37 +33 +40 душно 1012.6 980.1
З 2 40 км 6/3 1500 м
[Cu med, cong Ac cast]
+32.6 +14.1 33 +34 +43 очень
жарко
1012.0 979.7
З 3 40 км 4/3 1000 м
[Cu Sc Ac cast]
+32.0 +13.8 33 +33 +43 жарко 1012.0 979.6 0.2
В 4 50 км 8/6 1000 м
[Cu Sc Ac cuf]
+29.8 +14.8 40 +32 +35 душно 1012.2 979.6
В 4 н/о н/о +29.6 +13.0 36 +31 +31 жарко 1013.0 980.1
В 4 н/о н/о +26.9 +15.4 49 +30 +30 душно 1013.1 979.9
С 2 н/о н/о +26.3 +20.5 70 +33 +33 очень
душно
1014.0 980.7
В 2 н/о н/о +24.4 +19.1 72 +29 +29 душно 1013.7 980.2
СВ 1 50 км 3/1 1500 м
[Cu med, cong Ac cuf Ci sp]
+24.8 +18.3 67 +29 +30 душно 1013.7 980.6 +33.5 0.7
В 1 50 км 3/3 1500 м
[Cb calv]
+22.2 +18.6 80 +27 +27 душно 1014.2 980.8
Ю 1 30 км 3/3 1000 м
[Cb calv]
+21.0 +18.6 86 +27 +27 душно 1015.0 981.4
Ю 2 н/о н/о +19.3 +17.7 90 +22 +22 комфорт 1016.1 982.0
СВ 2 н/о н/о +18.5 +16.2 86 +20 +20 1016.8 982.6
ЮВ 2 н/о н/о +19.0 +16.1 83 +21 +21 комфорт 1018.5 984.3
В 1 н/о н/о +19.2 +15.7 80 +22 +22 комфорт 1016.7 982.6
ЮВ 1 н/о н/о +18.4 +15.7 84 +20 +20 1017.5 983.2
штиль 0 40 км 3/0
[Ac cuf]
+21.2 +15.4 69 +24 +29 комфорт 1017.1 983.4 +17.9 0.5 1.2
СВ 1 40 км 3/0
[Ac cuf Ci fib]
+25.7 +11.1 40 +27 +35 жарко 1016.6 983.4
С 2 50 км 3/0
[Ac cuf Ci]
+27.8 +9.9 33 +28 +39 жарко 1016.3 983.3
З 1 50 км 4/0
[Ac lent Ci]
+29.2 +10.4 31 +29 +43 жарко 1016.5 983.7
Ю 1 50 км 4/3 1500 м
[Cu med, cong Ac lent Ci fib]
+29.0 +9.8 30 +29 +43 жарко 1016.6 983.7
С 3 50 км 5/5 1500 м
[Cu med, cong]
+29.7 +9.3 28 +29 +37 жарко 1016.1 983.3
С 2 50 км 6/6 1000 м
[Cu Sc]
+30.0 +9.5 28 +30 +37 жарко 1016.0 983.3 1.2
ЮВ 2 50 км 6/6 1000 м
[Cu Sc]
+28.8 +8.1 27 +28 +35 жарко 1015.9 983.0
Ю 1 н/о н/о +30.2 +8.6 26 +30 +30 жарко 1015.9 983.0
В 2 н/о н/о +30.0 +7.3 24 +29 +29 жарко 1015.5 982.6
В 2 н/о н/о +29.8 +8.3 26 +29 +29 жарко 1015.3 982.4
ЮЗ 3 н/о н/о +30.3 +8.7 26 +30 +30 жарко 1015.2 982.3
З 2 50 км 3/1 1500 м
[Cu hum Ac und]
+28.8 +10.0 31 +29 +29 жарко 1015.0 982.2
Местоположение метеостанции Пазин (Хорватия): широта 45.23 долгота 13.93 высота над уровнем моря 293 м.
В архиве по умолчанию представлена погода в Пазине за последнюю неделю. Архивные данные за месяц целиком и за предыдущие месяцы, начиная с января 2011 года, Вы можете получить, выбрав интересующий диапазон дат из раскрывающегося списка и нажав кнопку "Найти!".
*Определитесь, кто Вы:
Внимание! Время в таблицах - всемирное. Для получения местного времени необходимо прибавить поправку, которая равна 1 ч.
Смотрите также архив погоды в соседних городах и на ближайших метеорологических станциях:
Партнеры нашего сайта:      
Пояснения к столбцам:
  • Ветер - указаны скорость ветра в м/с - средняя за 10 мин, порывы в срок и между сроками (в фигурных скобках) и направление, откуда дует ветер: С - северный,
  • СВ - северо-восточный, В - восточный, ЮВ - юго-восточный, Ю - южный, ЮЗ - юго-западный, З - западный, СЗ - северо-западный.
  • Видимость - горизонтальная дальность видимости в метрах или километрах. При видимости от 1 до 10 км при отсутствии осадков обычно наблюдается дымка, при ухудшении видимости до 1 км и менее - туман. В сухую погоду видимость может ухудшаться дымом, пылью или мглою.
  • Явления - указаны атмосферные явления, наблюдавшиеся в срок или в последний час перед сроком; фигурными скобками обозначены явления, наблюдавшиеся между сроками (за 1-3 часа до срока); квадратными скобками обозначены град или гололедные отложения с указанием их диаметра в мм.
  • Облачность - указаны через наклонную черту общая и нижняя облачность в баллах и высота нижней границы облаков в метрах; квадратными скобками обозначены формы облаков: Ci - перистые, Cs - перисто-слоистые, Cc - перисто-кучевые, Ac - высококучевые, As - высокослоистые, Sc - слоисто-кучевые, Ns - слоисто-дождевые, Cu - кучевые, Cb - кучево-дождевые. Подробнее классификацию облаков см. в Атласе облаков (PDF).
  • T - Температура воздуха - температура, измеренная на высоте 2 м над землей.
  • Td - Температура точки росы - температура, при понижении до которой содержащийся в воздухе водяной пар достигнет насыщения.
  • f - Относительная влажность воздуха - влажноcть воздуха, измеренная на высоте 2 м над землей.
  • Te - Эффективная температура - температура, которую ощущает одетый по сезону человек в тени. Характеристика душности погоды. При расчете учитывается влияние влажности воздуха и скорости ветра на теплоощущения человека.
  • Tes - Эффективная температура на солнце - температура, которую ощущает человек, с поправкой на солнечный нагрев. Характеристика знойности погоды. Зависит от высоты солнца над горизонтом, облачности и скорости ветра. Ночью, в пасмурную погоду, а также при ветре 12 м/с и более поправка равна нулю.
  • P - Атмосферное давление - приведенное к уровню моря атмосферное давление.
  • Po - Атмосферное давление - измеренное на уровне метеостанции атмосферное давление.
  • Tmin - Минимальная температура - минимум температуры воздуха на высоте 2 м над землей.
  • Tmax - Максимальная температура - максимум температуры воздуха на высоте 2 м над землей.
  • R - Количество осадков - Количество выпавших осадков за период времени, мм. При наведении курсора мыши на число - период времени, за который выпало указанное количество осадков.
  • R24 - Количество осадков - Количество выпавших осадков за 24 часа, мм.
  • S - Снежный покров - Высота снежного покрова, см. При наведении курсора мыши на число - состояние снежного покрова и степень покрытия местности в баллах.